Hamilton, OH

8:27 AM EDT on April 25, 2017 (GMT -0400)
Butler County Regional

Weather History for KHAO - April, 2013

Change the Weather History Date:

Tuesday, April 30, 2013

  Actual Average (KLUK) Record (KLUK)
Temperature  
Mean Temperature 60 °F -  
Max Temperature 79 °F 72 °F 88 °F (1962)
Min Temperature 43 °F 49 °F 30 °F (1958)
Degree Days  
Heating Degree Days 4    
Growing Degree Days 10 (Base 50)    
Moisture  
Dew Point 49 °F    
Average Humidity 82    
Maximum Humidity 100    
Minimum Humidity 39    
Precipitation  
Precipitation 0.00 in - - ()
Sea Level Pressure  
Sea Level Pressure 30.03 in    
Wind  
Wind Speed 2 mph (ESE)    
Max Wind Speed 8 mph    
Max Gust Speed -    
Visibility 5 miles    
Events Fog    
Averages and records for this station are not official NWS values.
T = Trace of Precipitation, MM = Missing Value Source: NWS Daily Summary

Daily Weather History Graph

Daily Weather History Graph

Search for Another Location

Airport or City:

Trip Planner

Search our weather history database for the weather conditions in past years. The results will help you decide how hot, cold, wet, or windy it might be!

Date:

Astronomy

Apr. 30, 2013 Rise Set
Actual Time 6:40 AM EDT 8:30 PM EDT
Civil Twilight 6:11 AM EDT 8:59 PM EDT
Nautical Twilight 5:36 AM EDT 9:35 PM EDT
Astronomical Twilight 4:58 AM EDT 10:12 PM EDT
Moon 12:52 AM EDT (4/30) 11:08 AM EDT (4/30)
Length of Visible Light 14h 48m
Length of Day
13h 50m
Waning Gibbous, 70% of the Moon is Illuminated
Apr 30
Waning Gibbous
May 2
Last Quarter
May 9
New
May 18
First Quarter
May 25
Full

Hourly Weather History & Observations

Time (EDT) Temp. Dew Point Humidity Pressure Visibility Wind Dir Wind Speed Gust Speed Precip Events Conditions
12:53 AM 52.0 °F 50.0 °F 93% 30.00 in 7.0 mi East 4.6 mph - N/A   Clear
1:53 AM 50.0 °F 48.9 °F 96% 29.99 in 5.0 mi East 3.5 mph - N/A   Clear
2:53 AM 50.0 °F 48.9 °F 96% 29.99 in 4.0 mi East 4.6 mph - N/A   Clear
3:44 AM 50.0 °F 48.2 °F 94% 30.00 in 1.8 mi Calm Calm - N/A   Clear
3:49 AM 48.2 °F 48.2 °F 100% 30.00 in 0.8 mi Calm Calm - N/A   Clear
3:53 AM 48.9 °F 48.0 °F 97% 30.00 in 0.8 mi Calm Calm - N/A   Clear
4:02 AM 48.2 °F 48.2 °F 100% 30.01 in 1.2 mi Calm Calm - N/A   Clear
4:32 AM 48.2 °F 46.4 °F 93% 30.01 in 2.0 mi Calm Calm - N/A   Clear
4:41 AM 46.4 °F 46.4 °F 100% 30.01 in 1.2 mi Calm Calm - N/A   Clear
4:48 AM 44.6 °F 44.6 °F 100% 30.01 in 0.2 mi Calm Calm - N/A Fog Fog
4:53 AM 46.0 °F 46.0 °F 100% 30.01 in 0.2 mi Calm Calm - N/A Fog Fog
5:23 AM 44.6 °F 44.6 °F 100% 30.01 in 1.2 mi Calm Calm - N/A   Partly Cloudy
5:42 AM 44.6 °F 44.6 °F 100% 30.01 in 0.8 mi Calm Calm - N/A   Clear
5:50 AM 44.6 °F 44.6 °F 100% 30.01 in 1.0 mi Calm Calm - N/A   Mist
5:51 AM 44.6 °F 44.6 °F 100% 30.01 in 0.8 mi Calm Calm - N/A   Mist
5:53 AM 45.0 °F 44.1 °F 97% 30.02 in 0.2 mi Calm Calm - N/A Fog Fog
6:53 AM 43.0 °F 43.0 °F 100% 30.04 in 0.2 mi Calm Calm - N/A Fog Fog
7:37 AM 46.4 °F 46.4 °F 100% 30.05 in 1.2 mi Calm Calm - N/A   Partly Cloudy
7:46 AM 46.4 °F 46.4 °F 100% 30.05 in 1.8 mi Calm Calm - N/A   Clear
7:53 AM 48.0 °F 48.0 °F 100% 30.05 in 1.2 mi Calm Calm - N/A   Clear
7:58 AM 48.2 °F 48.2 °F 100% 30.06 in 2.0 mi Calm Calm - N/A   Clear
8:12 AM 51.8 °F 51.8 °F 100% 30.06 in 3.0 mi Calm Calm - N/A   Clear
8:53 AM 55.0 °F 54.0 °F 96% 30.06 in 5.0 mi SE 4.6 mph - N/A   Clear
9:53 AM 62.1 °F 54.0 °F 75% 30.06 in 10.0 mi SE 5.8 mph - N/A   Clear
10:53 AM 66.9 °F 55.0 °F 66% 30.06 in 10.0 mi SE 4.6 mph - N/A   Clear
11:53 AM 71.1 °F 54.0 °F 55% 30.06 in 10.0 mi Variable 5.8 mph - N/A   Clear
12:53 PM 73.9 °F 55.0 °F 52% 30.05 in 10.0 mi Variable 5.8 mph - N/A   Clear
1:53 PM 75.0 °F 53.1 °F 46% 30.04 in 10.0 mi SSE 6.9 mph - N/A   Clear
2:53 PM 75.9 °F 52.0 °F 43% 30.02 in 10.0 mi Variable 5.8 mph - N/A   Clear
3:53 PM 78.1 °F 51.1 °F 39% 30.01 in 10.0 mi East 4.6 mph - N/A   Clear
4:53 PM 78.1 °F 52.0 °F 40% 30.00 in 10.0 mi East 6.9 mph - N/A   Clear
5:53 PM 78.1 °F 53.1 °F 42% 30.00 in 10.0 mi East 8.1 mph - N/A   Clear
6:53 PM 78.1 °F 51.1 °F 39% 30.02 in 10.0 mi ESE 5.8 mph - N/A   Clear
7:53 PM 73.9 °F 52.0 °F 46% 30.03 in 10.0 mi ESE 4.6 mph - N/A   Clear
8:53 PM 64.0 °F 52.0 °F 65% 30.04 in 10.0 mi Calm Calm - N/A   Clear
9:53 PM 62.1 °F 53.1 °F 72% 30.06 in 10.0 mi Calm Calm - N/A   Clear
10:53 PM 57.9 °F 53.1 °F 84% 30.07 in 10.0 mi Calm Calm - N/A   Clear
11:53 PM 57.0 °F 53.1 °F 87% 30.07 in 10.0 mi Calm Calm - N/A   Clear